| time (UTC) | temp F | wind direction | speed MPH | gust MPH | rain 1hr in | rain 24hr in | rain mn in | humidity % | barometer mb |
| 20260505125018 | 72 | 186 | 3.0 | 8.0 | 0.00 | 0.00 | 0.00 | 81 | 1004.6 |
| 20260505124538 | 72 | 196 | 1.0 | 7.0 | 0.00 | 0.00 | 0.00 | 81 | 1004.5 |
| 20260505124018 | 72 | 77 | 2.0 | 9.0 | 0.00 | 0.00 | 0.00 | 81 | 1004.6 |
| 20260505123518 | 72 | 173 | 2.0 | 9.0 | 0.00 | 0.00 | 0.00 | 81 | 1004.5 |
| 20260505123037 | 72 | 155 | 2.0 | 9.0 | 0.00 | 0.00 | 0.00 | 81 | 1004.3 |
| 20260505122518 | 72 | 186 | 3.0 | 9.0 | 0.00 | 0.00 | 0.00 | 81 | 1004.1 |
| 20260505122022 | 72 | 232 | 3.0 | 9.0 | 0.00 | 0.00 | 0.00 | 81 | 1004.1 |
| 20260505121540 | 72 | 166 | 3.0 | 7.0 | 0.00 | 0.00 | 0.00 | 80 | 1004.2 |
| 20260505121021 | 72 | 176 | 2.0 | 9.0 | 0.00 | 0.00 | 0.00 | 80 | 1004.1 |
| 20260505120522 | 72 | 151 | 3.0 | 11.0 | 0.00 | 0.00 | 0.00 | 80 | 1004.1 |
| 20260505120041 | 72 | 234 | 3.0 | 11.0 | 0.00 | 0.00 | 0.00 | 81 | 1004.1 |
| 20260505115521 | 72 | 206 | 2.0 | 12.0 | 0.00 | 0.00 | 0.00 | 80 | 1004.2 |
| 20260505115018 | 72 | 189 | 3.0 | 12.0 | 0.00 | 0.00 | 0.00 | 81 | 1004.1 |
| 20260505114537 | 71 | 155 | 3.0 | 8.0 | 0.00 | 0.00 | 0.00 | 81 | 1004.0 |
| 20260505114021 | 72 | 208 | 2.0 | 11.0 | 0.00 | 0.00 | 0.00 | 80 | 1003.9 |
| 20260505113524 | 72 | 161 | 3.0 | 11.0 | 0.00 | 0.00 | 0.00 | 80 | 1003.9 |
| 20260505113036 | 72 | 156 | 3.0 | 10.0 | 0.00 | 0.00 | 0.00 | 80 | 1003.9 |
| 20260505112518 | 72 | 207 | 2.0 | 10.0 | 0.00 | 0.00 | 0.00 | 80 | 1003.7 |
| 20260505112018 | 72 | 205 | 3.0 | 14.0 | 0.00 | 0.00 | 0.00 | 80 | 1003.8 |
| 20260505111539 | 71 | 230 | 4.0 | 14.0 | 0.00 | 0.00 | 0.00 | 81 | 1003.9 |
| 20260505111018 | 71 | 200 | 3.0 | 7.0 | 0.00 | 0.00 | 0.00 | 81 | 1003.8 |
| 20260505110519 | 71 | 205 | 3.0 | 7.0 | 0.00 | 0.00 | 0.00 | 82 | 1004.0 |
| 20260505102025 | 71 | 195 | 3.0 | 9.0 | 0.00 | 0.00 | 0.00 | 80 | 1003.9 |
| 20260505101535 | 71 | 143 | 2.0 | 8.0 | 0.00 | 0.00 | 0.00 | 81 | 1004.0 |
| 20260505101021 | 71 | 194 | 3.0 | 7.0 | 0.00 | 0.00 | 0.00 | 80 | 1003.9 |
| 20260505100521 | 71 | 163 | 2.0 | 7.0 | 0.00 | 0.00 | 0.00 | 80 | 1003.9 |
| 20260505100035 | 71 | 161 | 3.0 | 9.0 | 0.00 | 0.00 | 0.00 | 80 | 1003.9 |
| 20260505095520 | 71 | 201 | 3.0 | 11.0 | 0.00 | 0.00 | 0.00 | 81 | 1003.9 |
| 20260505095024 | 71 | 240 | 4.0 | 11.0 | 0.00 | 0.00 | 0.00 | 80 | 1004.1 |
| 20260505094537 | 71 | 194 | 3.0 | 10.0 | 0.00 | 0.00 | 0.00 | 81 | 1004.1 |
| 20260505094020 | 71 | 84 | 2.0 | 10.0 | 0.00 | 0.00 | 0.00 | 81 | 1004.3 |
| 20260505093522 | 71 | 188 | 4.0 | 11.0 | 0.00 | 0.00 | 0.00 | 81 | 1004.2 |
| 20260505093040 | 71 | 168 | 3.0 | 11.0 | 0.00 | 0.00 | 0.00 | 81 | 1004.2 |
| 20260505092521 | 71 | 151 | 4.0 | 10.0 | 0.00 | 0.00 | 0.00 | 81 | 1004.2 |
| 20260505092021 | 71 | 163 | 2.0 | 10.0 | 0.00 | 0.00 | 0.00 | 81 | 1004.4 |
| 20260505091548 | 71 | 202 | 1.0 | 10.0 | 0.00 | 0.00 | 0.00 | 81 | 1004.4 |
| 20260505091019 | 71 | 205 | 2.0 | 8.0 | 0.00 | 0.00 | 0.00 | 81 | 1004.5 |
| 20260505090521 | 71 | 178 | 2.0 | 8.0 | 0.00 | 0.00 | 0.00 | 82 | 1004.4 |
| 20260505090034 | 71 | 191 | 3.0 | 8.0 | 0.00 | 0.00 | 0.00 | 82 | 1004.4 |
| 20260505085521 | 71 | 169 | 3.0 | 12.0 | 0.00 | 0.00 | 0.00 | 81 | 1004.3 |
| 20260505085025 | 71 | 132 | 2.0 | 12.0 | 0.00 | 0.00 | 0.00 | 81 | 1004.3 |
| 20260505084535 | 71 | 312 | 2.0 | 11.0 | 0.00 | 0.00 | 0.00 | 81 | 1004.3 |
| 20260505084023 | 71 | 202 | 4.0 | 11.0 | 0.00 | 0.00 | 0.00 | 81 | 1004.3 |
| 20260505083520 | 71 | 172 | 3.0 | 8.0 | 0.00 | 0.00 | 0.00 | 81 | 1004.4 |
| 20260505083039 | 71 | 36 | 2.0 | 8.0 | 0.00 | 0.00 | 0.00 | 81 | 1004.4 |
| 20260505082520 | 71 | 205 | 3.0 | 9.0 | 0.00 | 0.00 | 0.00 | 80 | 1004.3 |
| 20260505082022 | 71 | 198 | 3.0 | 12.0 | 0.00 | 0.00 | 0.00 | 80 | 1004.3 |
| 20260505081539 | 71 | 195 | 4.0 | 12.0 | 0.00 | 0.00 | 0.00 | 80 | 1004.4 |
| 20260505081020 | 71 | 117 | 3.0 | 10.0 | 0.00 | 0.00 | 0.00 | 80 | 1004.5 |
| 20260505080517 | 71 | 164 | 2.0 | 10.0 | 0.00 | 0.00 | 0.00 | 80 | 1004.5 |
| 20260505080037 | 71 | 264 | 3.0 | 10.0 | 0.00 | 0.00 | 0.00 | 80 | 1004.5 |
| 20260505075520 | 71 | 0 | 3.0 | 9.0 | 0.00 | 0.00 | 0.00 | 79 | 1004.6 |
| 20260505075024 | 71 | 184 | 2.0 | 7.0 | 0.00 | 0.00 | 0.00 | 79 | 1004.6 |
| 20260505074537 | 71 | 215 | 2.0 | 7.0 | 0.00 | 0.00 | 0.00 | 79 | 1004.7 |
| 20260505074021 | 71 | 190 | 2.0 | 8.0 | 0.00 | 0.00 | 0.00 | 79 | 1004.8 |
| 20260505073521 | 72 | 188 | 3.0 | 8.0 | 0.00 | 0.00 | 0.00 | 78 | 1004.9 |
| 20260505073034 | 72 | 182 | 2.0 | 12.0 | 0.00 | 0.00 | 0.00 | 78 | 1005.0 |
| 20260505072524 | 72 | 197 | 2.0 | 12.0 | 0.00 | 0.00 | 0.00 | 78 | 1005.1 |
| 20260505072020 | 72 | 243 | 2.0 | 12.0 | 0.00 | 0.00 | 0.00 | 78 | 1005.1 |
| 20260505071551 | 72 | 161 | 3.0 | 8.0 | 0.00 | 0.00 | 0.00 | 78 | 1005.2 |
| 20260505071020 | 72 | 234 | 2.0 | 9.0 | 0.00 | 0.00 | 0.00 | 77 | 1005.2 |
| 20260505070523 | 72 | 170 | 3.0 | 9.0 | 0.00 | 0.00 | 0.00 | 77 | 1005.2 |
| 20260505070042 | 72 | 140 | 3.0 | 9.0 | 0.00 | 0.00 | 0.00 | 77 | 1005.3 |
| 20260505065522 | 72 | 172 | 2.0 | 7.0 | 0.00 | 0.00 | 0.00 | 77 | 1005.4 |
| 20260505065021 | 72 | 200 | 2.0 | 10.0 | 0.00 | 0.00 | 0.00 | 77 | 1005.5 |
| 20260505064536 | 72 | 197 | 2.0 | 10.0 | 0.00 | 0.00 | 0.00 | 76 | 1005.6 |
| 20260505064021 | 72 | 192 | 1.0 | 7.0 | 0.00 | 0.00 | 0.00 | 76 | 1005.7 |
| 20260505063521 | 72 | 178 | 2.0 | 7.0 | 0.00 | 0.00 | 0.00 | 76 | 1005.7 |
| 20260505063048 | 72 | 182 | 3.0 | 10.0 | 0.00 | 0.00 | 0.00 | 75 | 1005.7 |
| 20260505062526 | 72 | 194 | 3.0 | 10.0 | 0.00 | 0.00 | 0.00 | 75 | 1005.8 |
| 20260505062021 | 72 | 203 | 2.0 | 6.0 | 0.00 | 0.00 | 0.00 | 75 | 1005.7 |
| 20260505061604 | 72 | 201 | 1.0 | 8.0 | 0.00 | 0.00 | 0.00 | 75 | 1005.7 |
| 20260505061020 | 72 | 199 | 3.0 | 11.0 | 0.00 | 0.00 | 0.00 | 74 | 1005.8 |
| 20260505060524 | 73 | 172 | 2.0 | 12.0 | 0.00 | 0.00 | 0.00 | 74 | 1005.7 |
| 20260505060040 | 73 | 81 | 3.0 | 12.0 | 0.00 | 0.00 | 0.00 | 74 | 1005.7 |
| 20260505055525 | 73 | 211 | 2.0 | 10.0 | 0.00 | 0.00 | 0.00 | 73 | 1005.7 |
| 20260505055023 | 73 | 141 | 3.0 | 10.0 | 0.00 | 0.00 | 0.00 | 73 | 1005.8 |
| 20260505054540 | 73 | 120 | 3.0 | 9.0 | 0.00 | 0.00 | 0.00 | 73 | 1005.9 |
| 20260505054023 | 73 | 167 | 2.0 | 13.0 | 0.00 | 0.00 | 0.00 | 73 | 1005.9 |
| 20260505053521 | 73 | 109 | 3.0 | 13.0 | 0.00 | 0.00 | 0.00 | 73 | 1005.9 |
| 20260505053041 | 73 | 117 | 2.0 | 9.0 | 0.00 | 0.00 | 0.00 | 72 | 1006.0 |
| 20260505052523 | 73 | 162 | 2.0 | 16.0 | 0.00 | 0.00 | 0.00 | 72 | 1006.0 |
| 20260505052023 | 73 | 186 | 2.0 | 16.0 | 0.00 | 0.00 | 0.00 | 72 | 1006.1 |
| 20260505051601 | 73 | 142 | 3.0 | 8.0 | 0.00 | 0.00 | 0.00 | 71 | 1006.1 |
| 20260505051023 | 73 | 196 | 2.0 | 11.0 | 0.00 | 0.00 | 0.00 | 71 | 1006.1 |
| 20260505050523 | 73 | 157 | 3.0 | 11.0 | 0.00 | 0.00 | 0.00 | 71 | 1006.1 |
| 20260505041540 | 74 | 264 | 3.0 | 8.0 | 0.00 | 0.00 | 0.00 | 69 | 1006.2 |
| 20260505041022 | 74 | 183 | 3.0 | 11.0 | 0.00 | 0.00 | 0.00 | 69 | 1006.4 |
| 20260505040522 | 74 | 237 | 3.0 | 11.0 | 0.00 | 0.00 | 0.00 | 69 | 1006.4 |
| 20260505040036 | 74 | 184 | 2.0 | 9.0 | 0.00 | 0.00 | 0.00 | 69 | 1006.5 |
| 20260505035522 | 74 | 220 | 2.0 | 9.0 | 0.00 | 0.00 | 0.00 | 69 | 1006.4 |
| 20260505035021 | 74 | 123 | 2.0 | 7.0 | 0.00 | 0.00 | 0.00 | 69 | 1006.3 |
| 20260505034538 | 74 | 190 | 2.0 | 7.0 | 0.00 | 0.00 | 0.00 | 68 | 1006.3 |
| 20260505034023 | 74 | 194 | 2.0 | 8.0 | 0.00 | 0.00 | 0.00 | 68 | 1006.2 |
| 20260505033526 | 74 | 169 | 3.0 | 10.0 | 0.00 | 0.00 | 0.00 | 68 | 1006.3 |
| 20260505033038 | 74 | 181 | 2.0 | 10.0 | 0.00 | 0.00 | 0.00 | 68 | 1006.4 |
| 20260505032523 | 75 | 169 | 2.0 | 9.0 | 0.00 | 0.00 | 0.00 | 68 | 1006.5 |
| 20260505032022 | 75 | 175 | 3.0 | 14.0 | 0.00 | 0.00 | 0.00 | 67 | 1006.4 |
| 20260505031540 | 75 | 207 | 3.0 | 14.0 | 0.00 | 0.00 | 0.00 | 67 | 1006.4 |
| 20260505031022 | 75 | 205 | 3.0 | 10.0 | 0.00 | 0.00 | 0.00 | 67 | 1006.4 |
| 20260505030522 | 75 | 207 | 2.0 | 10.0 | 0.00 | 0.00 | 0.00 | 67 | 1006.4 |
| 20260505030038 | 75 | 161 | 3.0 | 8.0 | 0.00 | 0.00 | 0.00 | 67 | 1006.4 |
| 20260505025523 | 75 | 161 | 2.0 | 8.0 | 0.00 | 0.00 | 0.00 | 67 | 1006.5 |
| 20260505025017 | 75 | 189 | 2.0 | 13.0 | 0.00 | 0.00 | 0.00 | 67 | 1006.5 |
| 20260505024539 | 75 | 243 | 2.0 | 13.0 | 0.00 | 0.00 | 0.00 | 67 | 1006.4 |
| 20260505024018 | 75 | 187 | 1.0 | 9.0 | 0.00 | 0.00 | 0.00 | 66 | 1006.5 |
| 20260505023517 | 75 | 134 | 3.0 | 14.0 | 0.00 | 0.00 | 0.00 | 66 | 1006.4 |
| 20260505023036 | 75 | 169 | 2.0 | 14.0 | 0.00 | 0.00 | 0.00 | 65 | 1006.4 |
| 20260505022517 | 75 | 162 | 2.0 | 12.0 | 0.00 | 0.00 | 0.00 | 66 | 1006.4 |
| 20260505022017 | 75 | 215 | 3.0 | 12.0 | 0.00 | 0.00 | 0.00 | 65 | 1006.4 |
| 20260505021539 | 75 | 189 | 3.0 | 10.0 | 0.00 | 0.00 | 0.00 | 65 | 1006.3 |
| 20260505021017 | 75 | 196 | 3.0 | 10.0 | 0.00 | 0.00 | 0.00 | 65 | 1006.2 |
| 20260505020520 | 75 | 170 | 3.0 | 10.0 | 0.00 | 0.00 | 0.00 | 65 | 1006.1 |
| 20260505020038 | 76 | 144 | 2.0 | 12.0 | 0.00 | 0.00 | 0.00 | 65 | 1006.2 |
| 20260505015521 | 76 | 223 | 3.0 | 12.0 | 0.00 | 0.00 | 0.00 | 65 | 1006.3 |
| 20260505015018 | 76 | 205 | 2.0 | 12.0 | 0.00 | 0.00 | 0.00 | 65 | 1006.3 |
| 20260505014538 | 76 | 184 | 3.0 | 12.0 | 0.00 | 0.00 | 0.00 | 64 | 1006.3 |
| 20260505014021 | 76 | 186 | 3.0 | 11.0 | 0.00 | 0.00 | 0.00 | 64 | 1006.3 |
| 20260505013520 | 76 | 229 | 2.0 | 12.0 | 0.00 | 0.00 | 0.00 | 63 | 1006.4 |
| 20260505013039 | 76 | 191 | 4.0 | 12.0 | 0.00 | 0.00 | 0.00 | 63 | 1006.2 |
| 20260505012520 | 76 | 166 | 3.0 | 13.0 | 0.00 | 0.00 | 0.00 | 63 | 1006.3 |
| 20260505012017 | 76 | 234 | 4.0 | 13.0 | 0.00 | 0.00 | 0.00 | 63 | 1006.2 |
| 20260505011541 | 76 | 138 | 4.0 | 16.0 | 0.00 | 0.00 | 0.00 | 63 | 1006.2 |
| 20260505011017 | 77 | 273 | 4.0 | 16.0 | 0.00 | 0.00 | 0.00 | 63 | 1006.1 |
| 20260505010517 | 77 | 178 | 2.0 | 12.0 | 0.00 | 0.00 | 0.00 | 62 | 1006.2 |
| 20260505010037 | 77 | 184 | 4.0 | 12.0 | 0.00 | 0.00 | 0.00 | 62 | 1006.1 |
| 20260505005518 | 77 | 198 | 2.0 | 13.0 | 0.00 | 0.00 | 0.00 | 62 | 1006.1 |
| 20260505005017 | 77 | 192 | 3.0 | 13.0 | 0.00 | 0.00 | 0.00 | 61 | 1006.2 |
| 20260505004538 | 77 | 175 | 4.0 | 15.0 | 0.00 | 0.00 | 0.00 | 61 | 1006.2 |
| 20260505004020 | 77 | 157 | 3.0 | 15.0 | 0.00 | 0.00 | 0.00 | 61 | 1006.1 |
| 20260505003523 | 78 | 209 | 3.0 | 11.0 | 0.00 | 0.00 | 0.00 | 60 | 1006.1 |
| 20260505003038 | 78 | 176 | 3.0 | 12.0 | 0.00 | 0.00 | 0.00 | 59 | 1006.2 |
| 20260505002518 | 78 | 134 | 3.0 | 15.0 | 0.00 | 0.00 | 0.00 | 59 | 1006.2 |
| 20260505002017 | 78 | 158 | 5.0 | 15.0 | 0.00 | 0.00 | 0.00 | 59 | 1006.3 |
| 20260505001540 | 78 | 153 | 4.0 | 12.0 | 0.00 | 0.00 | 0.00 | 59 | 1006.3 |
| 20260505001017 | 79 | 224 | 3.0 | 13.0 | 0.00 | 0.00 | 0.00 | 58 | 1006.4 |
| 20260505000517 | 79 | 191 | 4.0 | 14.0 | 0.00 | 0.00 | 0.00 | 58 | 1006.2 |
| 20260505000044 | 79 | 202 | 3.0 | 14.0 | 0.00 | 0.00 | 0.00 | 58 | 1006.3 |
| 20260504235520 | 79 | 166 | 5.0 | 15.0 | 0.00 | 0.00 | 0.00 | 58 | 1006.4 |
| 20260504235024 | 79 | 240 | 6.0 | 15.0 | 0.00 | 0.00 | 0.00 | 58 | 1006.4 |
| 20260504234541 | 79 | 147 | 5.0 | 15.0 | 0.00 | 0.00 | 0.00 | 57 | 1006.4 |
| 20260504234023 | 79 | 130 | 5.0 | 19.0 | 0.00 | 0.00 | 0.00 | 57 | 1006.5 |
| 20260504233522 | 79 | 199 | 5.0 | 19.0 | 0.00 | 0.00 | 0.00 | 57 | 1006.5 |
| 20260504233033 | 79 | 192 | 4.0 | 16.0 | 0.00 | 0.00 | 0.00 | 57 | 1006.4 |
| 20260504232522 | 80 | 200 | 7.0 | 16.0 | 0.00 | 0.00 | 0.00 | 56 | 1006.4 |
| 20260504232021 | 80 | 141 | 4.0 | 14.0 | 0.00 | 0.00 | 0.00 | 56 | 1006.4 |
| 20260504231544 | 80 | 134 | 4.0 | 15.0 | 0.00 | 0.00 | 0.00 | 56 | 1006.6 |
| 20260504231021 | 80 | 178 | 4.0 | 16.0 | 0.00 | 0.00 | 0.00 | 55 | 1006.7 |
| 20260504230523 | 81 | 198 | 4.0 | 15.0 | 0.00 | 0.00 | 0.00 | 54 | 1006.8 |
| 20260504230050 | 82 | 267 | 5.0 | 20.0 | 0.00 | 0.00 | 0.00 | 53 | 1006.7 |
| 20260504225523 | 81 | 206 | 5.0 | 20.0 | 0.00 | 0.00 | 0.00 | 54 | 1006.7 |
| 20260504225025 | 81 | 171 | 5.0 | 14.0 | 0.00 | 0.00 | 0.00 | 54 | 1006.8 |
| 20260504224537 | 81 | 177 | 3.0 | 13.0 | 0.00 | 0.00 | 0.00 | 54 | 1007.0 |
| 20260504224023 | 81 | 261 | 5.0 | 14.0 | 0.00 | 0.00 | 0.00 | 54 | 1006.9 |
| 20260504223524 | 81 | 217 | 6.0 | 14.0 | 0.00 | 0.00 | 0.00 | 54 | 1007.0 |
| 20260504223038 | 81 | 184 | 4.0 | 12.0 | 0.00 | 0.00 | 0.00 | 53 | 1006.9 |
| 20260504222522 | 82 | 140 | 3.0 | 13.0 | 0.00 | 0.00 | 0.00 | 52 | 1006.9 |
| 20260504222021 | 83 | 201 | 3.0 | 13.0 | 0.00 | 0.00 | 0.00 | 52 | 1006.8 |
| 20260504221540 | 83 | 162 | 3.0 | 14.0 | 0.00 | 0.00 | 0.00 | 52 | 1006.9 |
| 20260504221022 | 82 | 160 | 5.0 | 14.0 | 0.00 | 0.00 | 0.00 | 51 | 1006.9 |
| 20260504220523 | 82 | 211 | 4.0 | 14.0 | 0.00 | 0.00 | 0.00 | 52 | 1007.1 |
| 20260504220041 | 82 | 221 | 4.0 | 14.0 | 0.00 | 0.00 | 0.00 | 52 | 1007.2 |
| 20260504215521 | 83 | 204 | 5.0 | 16.0 | 0.00 | 0.00 | 0.00 | 51 | 1007.3 |
| 20260504215023 | 83 | 271 | 3.0 | 16.0 | 0.00 | 0.00 | 0.00 | 51 | 1007.3 |
| 20260504214537 | 83 | 163 | 4.0 | 17.0 | 0.00 | 0.00 | 0.00 | 51 | 1007.5 |
| 20260504214025 | 83 | 172 | 4.0 | 18.0 | 0.00 | 0.00 | 0.00 | 51 | 1007.5 |
| 20260504213522 | 83 | 186 | 4.0 | 18.0 | 0.00 | 0.00 | 0.00 | 50 | 1007.6 |
| 20260504213038 | 83 | 159 | 3.0 | 15.0 | 0.00 | 0.00 | 0.00 | 51 | 1007.6 |
| 20260504212522 | 83 | 167 | 5.0 | 14.0 | 0.00 | 0.00 | 0.00 | 50 | 1007.6 |
| 20260504212022 | 84 | 233 | 3.0 | 10.0 | 0.00 | 0.00 | 0.00 | 50 | 1007.8 |
| 20260504211539 | 83 | 213 | 3.0 | 10.0 | 0.00 | 0.00 | 0.00 | 50 | 1007.9 |
| 20260504211022 | 84 | 150 | 4.0 | 12.0 | 0.00 | 0.00 | 0.00 | 50 | 1008.0 |
| 20260504210524 | 84 | 182 | 4.0 | 15.0 | 0.00 | 0.00 | 0.00 | 49 | 1008.0 |
| 20260504210043 | 83 | 176 | 5.0 | 15.0 | 0.00 | 0.00 | 0.00 | 49 | 1008.2 |
| 20260504205522 | 84 | 183 | 3.0 | 11.0 | 0.00 | 0.00 | 0.00 | 49 | 1008.1 |
| 20260504205021 | 84 | 139 | 4.0 | 11.0 | 0.00 | 0.00 | 0.00 | 49 | 1008.5 |
| 20260504204547 | 83 | 216 | 3.0 | 11.0 | 0.00 | 0.00 | 0.00 | 49 | 1008.5 |
| 20260504204027 | 84 | 172 | 4.0 | 17.0 | 0.00 | 0.00 | 0.00 | 48 | 1008.5 |
| 20260504203522 | 84 | 120 | 4.0 | 17.0 | 0.00 | 0.00 | 0.00 | 48 | 1008.7 |
| 20260504203053 | 84 | 140 | 5.0 | 15.0 | 0.00 | 0.00 | 0.00 | 47 | 1008.7 |
| 20260504202522 | 84 | 222 | 4.0 | 12.0 | 0.00 | 0.00 | 0.00 | 47 | 1008.8 |
| 20260504202022 | 85 | 199 | 2.0 | 13.0 | 0.00 | 0.00 | 0.00 | 48 | 1009.0 |
| 20260504201540 | 84 | 196 | 3.0 | 14.0 | 0.00 | 0.00 | 0.00 | 48 | 1009.1 |
| 20260504201025 | 84 | 140 | 4.0 | 17.0 | 0.00 | 0.00 | 0.00 | 47 | 1009.2 |
| 20260504200521 | 84 | 146 | 3.0 | 19.0 | 0.00 | 0.00 | 0.00 | 47 | 1009.4 |
| 20260504200038 | 84 | 188 | 4.0 | 19.0 | 0.00 | 0.00 | 0.00 | 47 | 1009.4 |
| 20260504195521 | 84 | 146 | 4.0 | 16.0 | 0.00 | 0.00 | 0.00 | 47 | 1009.4 |
| 20260504195018 | 83 | 124 | 5.0 | 14.0 | 0.00 | 0.00 | 0.00 | 47 | 1009.5 |
| 20260504194538 | 83 | 221 | 3.0 | 10.0 | 0.00 | 0.00 | 0.00 | 48 | 1009.6 |
| 20260504194021 | 83 | 288 | 4.0 | 12.0 | 0.00 | 0.00 | 0.00 | 47 | 1009.7 |
| 20260504193522 | 83 | 196 | 3.0 | 12.0 | 0.00 | 0.00 | 0.00 | 47 | 1009.7 |
| 20260504193038 | 83 | 169 | 4.0 | 13.0 | 0.00 | 0.00 | 0.00 | 47 | 1009.7 |
| 20260504192522 | 82 | 169 | 4.0 | 13.0 | 0.00 | 0.00 | 0.00 | 48 | 1009.8 |
| 20260504192023 | 82 | 181 | 1.0 | 12.0 | 0.00 | 0.00 | 0.00 | 48 | 1009.9 |
| 20260504191535 | 82 | 296 | 3.0 | 12.0 | 0.00 | 0.00 | 0.00 | 47 | 1010.0 |
| 20260504191022 | 83 | 140 | 2.0 | 12.0 | 0.00 | 0.00 | 0.00 | 47 | 1010.2 |
| 20260504190522 | 84 | 212 | 2.0 | 10.0 | 0.00 | 0.00 | 0.00 | 46 | 1010.2 |
| 20260504190050 | 83 | 175 | 3.0 | 16.0 | 0.00 | 0.00 | 0.00 | 46 | 1010.1 |
| 20260504185521 | 83 | 173 | 4.0 | 15.0 | 0.00 | 0.00 | 0.00 | 46 | 1010.2 |
| 20260504185021 | 82 | 169 | 4.0 | 14.0 | 0.00 | 0.00 | 0.00 | 47 | 1010.3 |
| 20260504184540 | 82 | 250 | 2.0 | 12.0 | 0.00 | 0.00 | 0.00 | 48 | 1010.3 |
| 20260504184022 | 82 | 202 | 3.0 | 12.0 | 0.00 | 0.00 | 0.00 | 47 | 1010.3 |
| 20260504183522 | 81 | 188 | 3.0 | 14.0 | 0.00 | 0.00 | 0.00 | 47 | 1010.4 |
| 20260504183039 | 82 | 226 | 4.0 | 14.0 | 0.00 | 0.00 | 0.00 | 45 | 1010.5 |
| 20260504182530 | 82 | 226 | 3.0 | 11.0 | 0.00 | 0.00 | 0.00 | 47 | 1010.6 |
| 20260504182026 | 81 | 230 | 4.0 | 11.0 | 0.00 | 0.00 | 0.00 | 45 | 1010.7 |
| 20260504181542 | 81 | 187 | 2.0 | 13.0 | 0.00 | 0.00 | 0.00 | 45 | 1010.8 |
| 20260504181021 | 81 | 165 | 4.0 | 13.0 | 0.00 | 0.00 | 0.00 | 45 | 1010.9 |
| 20260504180523 | 81 | 179 | 3.0 | 12.0 | 0.00 | 0.00 | 0.00 | 44 | 1011.0 |
| 20260504180039 | 81 | 196 | 3.0 | 12.0 | 0.00 | 0.00 | 0.00 | 45 | 1010.9 |
| 20260504175521 | 81 | 166 | 3.0 | 16.0 | 0.00 | 0.00 | 0.00 | 43 | 1011.0 |
| 20260504175023 | 81 | 180 | 2.0 | 16.0 | 0.00 | 0.00 | 0.00 | 44 | 1011.2 |
| 20260504174536 | 80 | 215 | 4.0 | 11.0 | 0.00 | 0.00 | 0.00 | 43 | 1011.4 |
| 20260504174022 | 80 | 167 | 2.0 | 11.0 | 0.00 | 0.00 | 0.00 | 43 | 1011.6 |
| 20260504173522 | 80 | 200 | 5.0 | 12.0 | 0.00 | 0.00 | 0.00 | 44 | 1011.6 |
| 20260504173035 | 79 | 194 | 4.0 | 12.0 | 0.00 | 0.00 | 0.00 | 44 | 1011.8 |
| 20260504172624 | 79 | 216 | 4.0 | 9.0 | 0.00 | 0.00 | 0.00 | 45 | 1011.7 |
| 20260504172025 | 79 | 227 | 2.0 | 8.0 | 0.00 | 0.00 | 0.00 | 45 | 1011.7 |
| 20260504171539 | 78 | 192 | 3.0 | 11.0 | 0.00 | 0.00 | 0.00 | 44 | 1011.9 |
| 20260504171024 | 79 | 140 | 4.0 | 13.0 | 0.00 | 0.00 | 0.00 | 45 | 1012.0 |
| 20260504170522 | 78 | 253 | 4.0 | 13.0 | 0.00 | 0.00 | 0.00 | 43 | 1012.1 |
| 20260504151021 | 72 | 266 | 3.0 | 12.0 | 0.00 | 0.00 | 0.00 | 56 | 1013.1 |
| 20260504150525 | 72 | 206 | 4.0 | 12.0 | 0.00 | 0.00 | 0.00 | 55 | 1013.1 |
| 20260504141022 | 69 | 194 | 4.0 | 9.0 | 0.00 | 0.00 | 0.00 | 61 | 1013.3 |
| 20260504140525 | 69 | 210 | 3.0 | 11.0 | 0.00 | 0.00 | 0.00 | 63 | 1013.4 |
| 20260504130522 | 65 | 214 | 2.0 | 5.0 | 0.00 | 0.00 | 0.00 | 68 | 1013.5 |